Cape Cod CGAS, MA

12:05 PM EDT on July 23, 2017 (GMT -0400)
Cape Cod Coast Guard Air Station

Weather History for KFMH - August, 2013

Change the Weather History Date:

Saturday, August 3, 2013

  Actual Average Record
Temperature  
Mean Temperature 70 °F -  
Max Temperature 73 °F 76 °F 89 °F (2002)
Min Temperature 66 °F 61 °F 60 °F (1996)
Cooling Degree Days 4    
Growing Degree Days 20 (Base 50)    
Moisture  
Dew Point 65 °F    
Average Humidity 86    
Maximum Humidity 94    
Minimum Humidity 69    
Precipitation  
Precipitation 0.03 in - - ()
Sea Level Pressure  
Sea Level Pressure 29.86 in    
Wind  
Wind Speed 11 mph (WSW)    
Max Wind Speed 21 mph    
Max Gust Speed 26 mph    
Visibility 10 miles    
Events Rain , Thunderstorm    
Averages and records for this station are not official NWS values.
T = Trace of Precipitation, MM = Missing Value Source: NWS Daily Summary

Daily Weather History Graph

Daily Weather History Graph

Search for Another Location

Airport or City:

Trip Planner

Search our weather history database for the weather conditions in past years. The results will help you decide how hot, cold, wet, or windy it might be!

Date:

Astronomy

Aug. 03, 2013 Rise Set
Actual Time 5:38 AM EDT 7:57 PM EDT
Civil Twilight 5:07 AM EDT 8:28 PM EDT
Nautical Twilight 4:29 AM EDT 9:06 PM EDT
Astronomical Twilight 3:46 AM EDT 9:48 PM EDT
Moon 2:44 AM EDT (8/3) 5:37 PM EDT (8/3)
Length of Visible Light 15h 20m
Length of Day
14h 18m
Waning Crescent, 9% of the Moon is Illuminated
Aug 3
Waning Crescent
Aug 6
New
Aug 14
First Quarter
Aug 20
Full
Aug 28
Last Quarter

Hourly Weather History & Observations

Time (EDT) Temp. Dew Point Humidity Pressure Visibility Wind Dir Wind Speed Gust Speed Precip Events Conditions
12:15 AM 69.8 °F 66.2 °F 88% 29.91 in 10.0 mi WSW 9.2 mph - N/A   Scattered Clouds
12:35 AM 69.8 °F 66.2 °F 88% 29.91 in 10.0 mi SW 9.2 mph - N/A   Mostly Cloudy
12:55 AM 69.8 °F 66.2 °F 88% 29.91 in 10.0 mi WSW 10.4 mph - N/A   Overcast
1:15 AM 69.8 °F 66.2 °F 88% 29.90 in 10.0 mi SW 8.1 mph - N/A   Overcast
1:35 AM 69.8 °F 68.0 °F 94% 29.90 in 10.0 mi SW 9.2 mph - N/A   Overcast
1:55 AM 69.8 °F 68.0 °F 94% 29.89 in 10.0 mi SW 8.1 mph - N/A   Overcast
2:15 AM 69.8 °F 68.0 °F 94% 29.87 in 10.0 mi WSW 9.2 mph - N/A Thunderstorm Overcast
2:35 AM 69.8 °F 68.0 °F 94% 29.87 in 10.0 mi WSW 8.1 mph - N/A   Mostly Cloudy
2:55 AM 68.0 °F 66.2 °F 94% 29.86 in 10.0 mi WSW 8.1 mph - N/A   Scattered Clouds
3:15 AM 68.0 °F 66.2 °F 94% 29.86 in 10.0 mi SW 6.9 mph - N/A   Partly Cloudy
3:35 AM 68.0 °F 66.2 °F 94% 29.85 in 10.0 mi SW 5.8 mph - N/A   Partly Cloudy
3:55 AM 66.2 °F 64.4 °F 94% 29.85 in 10.0 mi SW 5.8 mph - N/A   Partly Cloudy
4:15 AM 66.2 °F 64.4 °F 94% 29.84 in 10.0 mi SSW 6.9 mph - N/A   Clear
4:35 AM 66.2 °F 64.4 °F 94% 29.85 in 10.0 mi SW 5.8 mph - N/A   Partly Cloudy
4:55 AM 66.2 °F 64.4 °F 94% 29.86 in 10.0 mi SW 6.9 mph - N/A   Partly Cloudy
5:15 AM 68.0 °F 66.2 °F 94% 29.86 in 10.0 mi WSW 10.4 mph - N/A   Clear
5:35 AM 68.0 °F 66.2 °F 94% 29.87 in 9.0 mi WSW 8.1 mph - N/A   Mostly Cloudy
5:55 AM 68.0 °F 66.2 °F 94% 29.87 in 7.0 mi WSW 9.2 mph - N/A   Overcast
6:15 AM 69.8 °F 66.2 °F 88% 29.86 in 9.0 mi WSW 10.4 mph - N/A   Partly Cloudy
6:35 AM 69.8 °F 66.2 °F 88% 29.87 in 10.0 mi SW 9.2 mph - N/A   Clear
6:55 AM 71.6 °F 68.0 °F 88% 29.87 in 9.0 mi SW 10.4 mph - N/A   Clear
7:15 AM 71.6 °F 66.2 °F 83% 29.86 in 10.0 mi WSW 10.4 mph - N/A   Partly Cloudy
7:35 AM 71.6 °F 66.2 °F 83% 29.86 in 10.0 mi SW 11.5 mph - N/A   Clear
7:55 AM 71.6 °F 66.2 °F 83% 29.86 in 10.0 mi WSW 13.8 mph 19.6 mph N/A   Clear
8:15 AM 71.6 °F 64.4 °F 78% 29.86 in 10.0 mi WSW 15.0 mph 23.0 mph N/A   Clear
8:35 AM 71.6 °F 64.4 °F 78% 29.87 in 10.0 mi WSW 15.0 mph - N/A   Clear
8:55 AM 71.6 °F 64.4 °F 78% 29.87 in 10.0 mi WSW 15.0 mph 20.7 mph N/A   Clear
9:15 AM 73.4 °F 64.4 °F 73% 29.87 in 10.0 mi WSW 17.3 mph 24.2 mph N/A   Clear
9:35 AM 73.4 °F 62.6 °F 69% 29.87 in 10.0 mi WSW 19.6 mph 26.5 mph N/A   Partly Cloudy
9:55 AM 71.6 °F 64.4 °F 78% 29.88 in 10.0 mi WSW 15.0 mph 25.3 mph N/A   Partly Cloudy
10:15 AM 71.6 °F 64.4 °F 78% 29.87 in 10.0 mi WSW 17.3 mph 24.2 mph N/A Rain Light Rain
10:35 AM 71.6 °F 64.4 °F 78% 29.86 in 10.0 mi WSW 15.0 mph 23.0 mph N/A   Clear
10:55 AM 71.6 °F 64.4 °F 78% 29.87 in 10.0 mi WSW 20.7 mph 25.3 mph N/A Rain Light Rain
11:15 AM 71.6 °F 66.2 °F 83% 29.87 in 10.0 mi WSW 17.3 mph 25.3 mph N/A   Clear
11:35 AM 71.6 °F 64.4 °F 78% 29.87 in 10.0 mi West 16.1 mph 23.0 mph N/A   Clear
11:55 AM 71.6 °F 66.2 °F 83% 29.87 in 10.0 mi WSW 13.8 mph 23.0 mph N/A   Clear
12:15 PM 71.6 °F 66.2 °F 83% 29.86 in 10.0 mi WSW 13.8 mph 18.4 mph N/A   Clear
12:35 PM 71.6 °F 66.2 °F 83% 29.87 in 8.0 mi WSW 11.5 mph - N/A   Clear
12:55 PM 69.8 °F 66.2 °F 88% 29.87 in 9.0 mi SW 11.5 mph - N/A Rain Light Rain
1:15 PM 69.8 °F 66.2 °F 88% 29.87 in 7.0 mi SW 11.5 mph - N/A Rain Light Rain
1:35 PM 68.0 °F 66.2 °F 94% 29.87 in 9.0 mi SW 13.8 mph 18.4 mph N/A   Partly Cloudy
1:55 PM 68.0 °F 66.2 °F 94% 29.87 in 6.0 mi SW 12.7 mph 18.4 mph N/A Rain Light Rain
2:15 PM 68.0 °F 66.2 °F 94% 29.87 in 10.0 mi WSW 15.0 mph - N/A   Partly Cloudy
2:35 PM 68.0 °F 66.2 °F 94% 29.87 in 10.0 mi WSW 12.7 mph 18.4 mph N/A   Mostly Cloudy
2:55 PM 68.0 °F 66.2 °F 94% 29.86 in 10.0 mi WSW 13.8 mph - N/A   Overcast
3:15 PM 68.0 °F 64.4 °F 88% 29.86 in 10.0 mi WSW 13.8 mph - N/A   Mostly Cloudy
3:35 PM 71.6 °F 64.4 °F 78% 29.85 in 10.0 mi WSW 17.3 mph 21.9 mph N/A   Mostly Cloudy
3:55 PM 71.6 °F 64.4 °F 78% 29.84 in 10.0 mi WSW 16.1 mph 24.2 mph N/A   Mostly Cloudy
4:15 PM 71.6 °F 64.4 °F 78% 29.84 in 10.0 mi West 16.1 mph 21.9 mph N/A   Mostly Cloudy
4:35 PM 71.6 °F 64.4 °F 78% 29.84 in 10.0 mi WSW 17.3 mph 24.2 mph N/A   Scattered Clouds
4:55 PM 73.4 °F 64.4 °F 73% 29.83 in 10.0 mi WSW 17.3 mph 21.9 mph N/A   Scattered Clouds
5:15 PM 73.4 °F 64.4 °F 73% 29.83 in 10.0 mi WSW 15.0 mph 20.7 mph N/A   Partly Cloudy
5:35 PM 73.4 °F 64.4 °F 73% 29.83 in 10.0 mi WSW 13.8 mph - N/A   Clear
5:55 PM 73.4 °F 64.4 °F 73% 29.82 in 10.0 mi WSW 17.3 mph 20.7 mph N/A   Clear
6:15 PM 71.6 °F 64.4 °F 78% 29.82 in 10.0 mi WSW 16.1 mph 19.6 mph N/A   Clear
6:35 PM 71.6 °F 64.4 °F 78% 29.82 in 10.0 mi WSW 15.0 mph 21.9 mph N/A   Clear
6:55 PM 71.6 °F 64.4 °F 78% 29.83 in 10.0 mi WSW 13.8 mph - N/A   Clear
7:15 PM 69.8 °F 64.4 °F 83% 29.83 in 10.0 mi West 11.5 mph 16.1 mph N/A   Clear
7:35 PM 68.0 °F 64.4 °F 88% 29.83 in 10.0 mi SW 8.1 mph - N/A   Clear
7:55 PM 68.0 °F 64.4 °F 88% 29.84 in 10.0 mi WSW 8.1 mph - N/A   Clear
8:15 PM 68.0 °F 64.4 °F 88% 29.86 in 10.0 mi SW 8.1 mph - N/A   Clear
8:35 PM 68.0 °F 64.4 °F 88% 29.85 in 10.0 mi WSW 8.1 mph - N/A   Clear
8:55 PM 68.0 °F 64.4 °F 88% 29.86 in 10.0 mi SW 8.1 mph - N/A   Partly Cloudy
9:15 PM 68.0 °F 64.4 °F 88% 29.87 in 10.0 mi WSW 8.1 mph - N/A   Partly Cloudy
9:35 PM 66.2 °F 64.4 °F 94% 29.87 in 10.0 mi WSW 8.1 mph - N/A   Mostly Cloudy
9:55 PM 68.0 °F 64.4 °F 88% 29.86 in 10.0 mi SW 9.2 mph - N/A   Mostly Cloudy
10:15 PM 68.0 °F 64.4 °F 88% 29.86 in 10.0 mi WSW 8.1 mph - N/A   Mostly Cloudy
10:35 PM 68.0 °F 66.2 °F 94% 29.86 in 10.0 mi WSW 8.1 mph - N/A   Overcast
10:55 PM 68.0 °F 66.2 °F 94% 29.86 in 10.0 mi WSW 8.1 mph - N/A   Overcast
11:15 PM 68.0 °F 64.4 °F 88% 29.86 in 10.0 mi West 6.9 mph - N/A   Overcast
11:35 PM 68.0 °F 64.4 °F 88% 29.85 in 10.0 mi West 8.1 mph - N/A   Overcast
11:55 PM 68.0 °F 64.4 °F 88% 29.85 in 10.0 mi West 6.9 mph - N/A   Overcast